RYR7SA EGSS-LHBP

Flight info

Callsign RYR7SA
Flight time N/A
Altitude 37000
Route CLN P44 RATLO M197 REDFA DCT TACHA DCT NOMKA DCT OMELO DCT PEPIK DCT NIT M748 ARFOX
Aircraft B738/M-SDE3FGILRWY/SB1

Departure

Time N/A
Airport London Stansted Airport (EGSS)

Arrival

Time 2026-05-06 11:03
Airport Budapest Liszt Ferenc International Airport (LHBP)
Time Latitude Longitude Altitude Speed Heading
2026-05-06 10:16 50.88016 13.77965 36777 ft 465 kts 111°
2026-05-06 10:17 50.86156 13.87771 36774 ft 465 kts 111°
2026-05-06 10:17 50.84065 13.97398 36767 ft 458 kts 122°
2026-05-06 10:18 50.80523 14.05548 36764 ft 445 kts 140°
2026-05-06 10:18 50.76156 14.12421 36781 ft 443 kts 141°
2026-05-06 10:19 50.71764 14.19253 36768 ft 443 kts 140°
2026-05-06 10:19 50.67387 14.26115 36778 ft 444 kts 141°
2026-05-06 10:20 50.63018 14.32988 36783 ft 444 kts 141°
2026-05-06 10:20 50.58649 14.39858 36781 ft 444 kts 141°
2026-05-06 10:21 50.54275 14.46720 36787 ft 444 kts 141°
2026-05-06 10:21 50.49899 14.53563 36773 ft 444 kts 141°
2026-05-06 10:22 50.45521 14.60388 36793 ft 443 kts 141°
2026-05-06 10:22 50.41143 14.67194 36805 ft 443 kts 141°
2026-05-06 10:23 50.36766 14.73979 36802 ft 442 kts 141°
2026-05-06 10:23 50.32387 14.80749 36815 ft 443 kts 141°
2026-05-06 10:24 50.28001 14.87512 36814 ft 443 kts 141°
2026-05-06 10:24 50.23608 14.94266 36808 ft 443 kts 141°
2026-05-06 10:25 50.19241 15.00962 36799 ft 443 kts 141°
2026-05-06 10:25 50.14805 15.07746 36810 ft 444 kts 141°
2026-05-06 10:26 50.10420 15.14433 36809 ft 444 kts 141°
2026-05-06 10:26 50.05997 15.21160 36808 ft 445 kts 142°
2026-05-06 10:27 50.01566 15.27882 36809 ft 445 kts 142°
2026-05-06 10:27 49.97130 15.34595 36829 ft 445 kts 142°
2026-05-06 10:28 49.92689 15.41295 36816 ft 446 kts 142°
2026-05-06 10:28 49.88240 15.47988 36817 ft 446 kts 142°
2026-05-06 10:29 49.83785 15.54673 36830 ft 446 kts 142°
2026-05-06 10:29 49.79332 15.61338 36817 ft 445 kts 142°
2026-05-06 10:30 49.74881 15.67981 36821 ft 444 kts 142°
2026-05-06 10:30 49.70434 15.74599 36823 ft 444 kts 142°
2026-05-06 10:31 49.65989 15.81197 36826 ft 443 kts 142°
2026-05-06 10:31 49.61541 15.87783 36829 ft 443 kts 142°
2026-05-06 10:32 49.57093 15.94351 36825 ft 442 kts 142°
2026-05-06 10:32 49.52659 16.00881 36815 ft 441 kts 142°
2026-05-06 10:33 49.48232 16.07383 36822 ft 439 kts 142°
2026-05-06 10:33 49.43813 16.13857 36828 ft 438 kts 142°
2026-05-06 10:34 49.39407 16.20294 36836 ft 437 kts 142°
2026-05-06 10:34 49.35009 16.26704 36826 ft 435 kts 142°
2026-05-06 10:35 49.30625 16.33076 36825 ft 434 kts 143°
2026-05-06 10:35 49.26249 16.39421 36843 ft 433 kts 143°
2026-05-06 10:36 49.21875 16.45744 36846 ft 432 kts 143°
2026-05-06 10:36 49.17529 16.52013 36856 ft 432 kts 143°
2026-05-06 10:37 49.13150 16.58312 36805 ft 432 kts 143°
2026-05-06 10:37 49.08767 16.64603 36828 ft 433 kts 143°
2026-05-06 10:38 49.04369 16.70897 36831 ft 434 kts 143°
2026-05-06 10:38 48.99953 16.77202 36839 ft 436 kts 143°
2026-05-06 10:39 48.95522 16.83514 36839 ft 437 kts 143°
2026-05-06 10:39 48.91075 16.89833 36828 ft 438 kts 142°
2026-05-06 10:40 48.86623 16.96142 36847 ft 438 kts 142°
2026-05-06 10:40 48.82156 17.02460 36865 ft 439 kts 142°
2026-05-06 10:41 48.77732 17.08874 36854 ft 444 kts 136°
2026-05-06 10:41 48.73938 17.16324 36867 ft 448 kts 131°
2026-05-06 10:42 48.70242 17.23927 36869 ft 448 kts 132°
2026-05-06 10:42 48.66511 17.31484 36876 ft 448 kts 132°
2026-05-06 10:43 48.62753 17.38989 36870 ft 448 kts 133°
2026-05-06 10:44 48.57068 17.50260 36080 ft 451 kts 133°
2026-05-06 10:44 48.55172 17.54013 35518 ft 450 kts 133°
2026-05-06 10:44 48.53275 17.57762 34929 ft 450 kts 132°
2026-05-06 10:44 48.51400 17.61463 34350 ft 450 kts 132°
2026-05-06 10:45 48.49475 17.65256 33737 ft 450 kts 131°
2026-05-06 10:45 48.47592 17.68961 33065 ft 451 kts 131°
2026-05-06 10:45 48.45683 17.72714 32407 ft 450 kts 131°
2026-05-06 10:45 48.43754 17.76502 31752 ft 450 kts 131°
2026-05-06 10:46 48.41867 17.80198 31092 ft 453 kts 131°
2026-05-06 10:46 48.39938 17.83973 30436 ft 457 kts 131°
2026-05-06 10:46 48.37997 17.87766 29736 ft 459 kts 131°
2026-05-06 10:46 48.36042 17.91581 28770 ft 462 kts 131°
2026-05-06 10:47 48.34078 17.95413 27834 ft 463 kts 131°
2026-05-06 10:47 48.32108 17.99252 26923 ft 464 kts 131°
2026-05-06 10:47 48.30067 18.03006 26026 ft 463 kts 137°
2026-05-06 10:47 48.27760 18.06312 25172 ft 454 kts 141°
2026-05-06 10:48 48.26184 18.08441 24599 ft 447 kts 141°
2026-05-06 10:48 48.23883 18.11505 23782 ft 438 kts 141°
2026-05-06 10:48 48.21626 18.14508 22891 ft 430 kts 141°
2026-05-06 10:48 48.19456 18.17417 22127 ft 419 kts 141°
2026-05-06 10:49 48.17312 18.20314 21366 ft 410 kts 141°
2026-05-06 10:49 48.15223 18.23149 20615 ft 401 kts 141°
2026-05-06 10:49 48.13178 18.25932 19898 ft 394 kts 141°
2026-05-06 10:49 48.11172 18.28664 19204 ft 387 kts 141°
2026-05-06 10:50 48.09198 18.31352 18515 ft 381 kts 141°
2026-05-06 10:50 48.07255 18.33996 17856 ft 374 kts 141°
2026-05-06 10:50 48.05352 18.36583 17225 ft 366 kts 141°
2026-05-06 10:50 48.03485 18.39117 16593 ft 359 kts 141°
2026-05-06 10:51 48.01649 18.41607 15993 ft 353 kts 141°
2026-05-06 10:51 47.99845 18.44052 15436 ft 347 kts 141°
2026-05-06 10:51 47.98067 18.46458 14903 ft 342 kts 141°
2026-05-06 10:51 47.96315 18.48826 14372 ft 338 kts 141°
2026-05-06 10:52 47.94579 18.51170 13853 ft 336 kts 142°
2026-05-06 10:52 47.92850 18.53501 13279 ft 335 kts 141°
2026-05-06 10:52 47.91128 18.55821 12708 ft 333 kts 141°
2026-05-06 10:52 47.89411 18.58132 12162 ft 332 kts 141°
2026-05-06 10:53 47.87705 18.60428 11611 ft 329 kts 141°
2026-05-06 10:53 47.86020 18.62695 11083 ft 325 kts 141°
2026-05-06 10:53 47.84353 18.64935 10539 ft 321 kts 141°
2026-05-06 10:53 47.82712 18.67138 10144 ft 313 kts 141°
2026-05-06 10:54 47.81118 18.69278 9785 ft 305 kts 141°
2026-05-06 10:54 47.79560 18.71366 9393 ft 297 kts 141°
2026-05-06 10:54 47.78047 18.73393 8996 ft 290 kts 141°
2026-05-06 10:54 47.76567 18.75373 8607 ft 283 kts 142°
2026-05-06 10:55 47.75118 18.77309 8220 ft 277 kts 142°
2026-05-06 10:55 47.73670 18.79143 7833 ft 271 kts 145°
2026-05-06 10:55 47.72183 18.80808 7463 ft 266 kts 149°
2026-05-06 10:55 47.70669 18.82364 7104 ft 263 kts 150°
2026-05-06 10:56 47.69172 18.83900 6732 ft 260 kts 150°
2026-05-06 10:56 47.67702 18.85428 6399 ft 257 kts 148°
2026-05-06 10:56 47.66381 18.87215 6044 ft 256 kts 138°
2026-05-06 10:56 47.65209 18.89159 5794 ft 249 kts 137°
2026-05-06 10:57 47.64093 18.91026 5565 ft 235 kts 137°
2026-05-06 10:57 47.63020 18.92780 5292 ft 224 kts 137°
2026-05-06 10:57 47.61987 18.94450 5038 ft 216 kts 138°
2026-05-06 10:57 47.60994 18.96052 4989 ft 204 kts 139°
2026-05-06 10:58 47.60004 18.97638 4796 ft 214 kts 139°
2026-05-06 10:58 47.59001 18.99252 4529 ft 212 kts 138°
2026-05-06 10:58 47.58011 19.00851 4233 ft 209 kts 139°
2026-05-06 10:58 47.57037 19.02422 3957 ft 206 kts 138°
2026-05-06 10:59 47.56092 19.03949 3681 ft 196 kts 138°
2026-05-06 10:59 47.55195 19.05398 3443 ft 187 kts 138°
2026-05-06 10:59 47.54318 19.06811 3215 ft 186 kts 138°
2026-05-06 10:59 47.53450 19.08212 2950 ft 181 kts 140°
2026-05-06 11:00 47.52619 19.09553 2715 ft 172 kts 139°
2026-05-06 11:00 47.51835 19.10823 2529 ft 162 kts 140°
2026-05-06 11:00 47.51070 19.12055 2274 ft 159 kts 141°
2026-05-06 11:00 47.50334 19.13241 2063 ft 155 kts 140°
2026-05-06 11:01 47.49617 19.14396 1867 ft 151 kts 139°
2026-05-06 11:01 47.48912 19.15541 1686 ft 150 kts 139°
2026-05-06 11:01 47.48203 19.16685 1481 ft 152 kts 140°
2026-05-06 11:01 47.47484 19.17851 1261 ft 154 kts 140°
2026-05-06 11:02 47.46764 19.19021 1023 ft 153 kts 142°
2026-05-06 11:02 47.46054 19.20184 828 ft 152 kts 141°
2026-05-06 11:02 47.45338 19.21336 626 ft 152 kts 140°
2026-05-06 11:02 47.44637 19.22468 458 ft 145 kts 140°
2026-05-06 11:03 47.44028 19.23444 454 ft 109 kts 131°
2026-05-06 11:03 47.43687 19.23992 452 ft 44 kts 131°
2026-05-06 11:03 47.43505 19.24288 450 ft 27 kts 132°
2026-05-06 11:03 47.43382 19.24486 451 ft 25 kts 133°
2026-05-06 11:04 47.43268 19.24672 454 ft 24 kts 133°
2026-05-06 11:04 47.43158 19.24842 455 ft 21 kts 131°
2026-05-06 11:04 47.43099 19.25008 456 ft 18 kts 88°
2026-05-06 11:04 47.43169 19.25151 456 ft 17 kts 43°
2026-05-06 11:05 47.43256 19.25270 456 ft 17 kts 43°
2026-05-06 11:05 47.43333 19.25375 455 ft 14 kts 52°
2026-05-06 11:05 47.43307 19.25494 456 ft 13 kts 127°
2026-05-06 11:05 47.43327 19.25609 456 ft 13 kts 41°
2026-05-06 11:06 47.43394 19.25694 455 ft 13 kts 41°
2026-05-06 11:06 47.43457 19.25781 456 ft 12 kts 43°
2026-05-06 11:06 47.43463 19.25866 455 ft 5 kts 148°
2026-05-06 11:06 47.43428 19.25848 456 ft 6 kts 219°
2026-05-06 11:07 47.43399 19.25809 456 ft 4 kts 222°
2026-05-06 11:07 47.43389 19.25796 456 ft 0 kts 222°
2026-05-06 11:07 47.43388 19.25795 456 ft 0 kts 222°